WESTFORD NEEDLES, 19109

Orbit data source: Space-Track

WESTFORD NEEDLES, 19109 is space debris in LEO originally from a launch on Thu, 09 May 1963 UTC launched from the Air Force Western Test Range (AFWTR). Debris objects in space refer to the collection of defunct objects orbiting the Earth. Examples of debris include non-operational satellites, rocket bodies, and fragments generated from explosions, collisions, or faulty payload assembly.

Loading next visibility...
Identifier
19109, 1963-014EJ
Orbit
LEO
Country
Flag of USUS
Related business
Manufacturer
Unknown
Mission
Spacecraft
Bus & Motor
Unknown
Mass
Unknown
Launch date (UTC)
1963-05-09 (63 years ago)
Launch vehicle
Unknown
Launch site
Air Force Western Test Range (AFWTR)
Object type
Payload
Rocket body
Debris
Shape & HBR
Unknown shape, 0.2 m
Radar Cross Section
Medium (>0.1 m² and <1 m²)

Expand to show TLE details & history
Last TLE update: 2 months ago

TLE from 2 months ago
0 WESTFORD NEEDLES
1 19109U 63014EJ  25243.56009441  .00000148  00000-0  36577-1 0  9991
2 19109  87.0866 101.0066 1041177  58.2910 311.5237  8.70314089433188
Epoch: 2025-08-31T13:26Z
TLE epoch observation values (Epoch: 2025-08-31T13:26:32.157Z)
Latitude
0.00001°
Longitude
-80.60567°
Altitude
2,985.676 km
Speed
6.725 km/s
True Right ascension
06h 44m 01s
True Declination
0° 00' 00"
Sunlit
Object was in daylight at epoch
Visualization orbit readout
Latitude
Unknown
Longitude
Unknown
Altitude
Unknown
Speed
Unknown
Apparent Right ascension
Unknown
Apparent Declination
Unknown
Sunlit
N/A
Visualization observer readout
Local Sidereal Time
19:17:58
Azimuth
Unknown
Elevation
Unknown
Doppler factor
Unknown
Orbital elements
Apogee altitude
4,642.415 km
Perigee altitude
2,563.951 km
Semi-major axis
9,981.32 km
Eccentricity
0.10412
Inclination
87.0866°
RAAN
101.0066°
Arg. of periapsis
58.291°
True anomaly
301.79865°
Mean anomaly
311.5237°
Eccentric anomaly
306.74341°
Mean motion
2.17651 °/min
Orbital period
165.4 mins
BSTAR
0.036577
Loading maneuver chart data...
Computing Atmospheric mass density...

Documentation

Showing up to 5 results
|